Flag for Italy Weather past 2 weeks in Modena, Italy

Now
45 °F

Sunny.


Feels Like: 45 °F
Forecast: 32 / 51 °F
Wind: No wind

Location: Bologna / Borgo Panigale

Current Time: Mar 6, 2015 at 9:41:54 AM

Latest Report: Mar 6, 2015 at 8:50 AM


Visibility: 10 mi

Pressure: 30.45 "Hg

Humidity: 57%

Dew point: 30 °F

Location of ModenaLocation

Historic Weather in Modena — Graph

°F

Modena temperature yesterday

Maximum temperature yesterday: 52 °F (at 12:50 PM)
Minimum temperature yesterday: 41 °F (at 11:50 PM)
Average temperature yesterday: 47 °F

Past Weeks' High & Low Weather Summary

 TemperatureHumidityPressure
High57 °F (Feb 21, 11:50 AM)100% (Feb 22, 7:20 AM)30.54 "Hg (Feb 22, 7:20 AM)
Low32 °F (Feb 20, 5:20 AM)35% (Feb 19, 4:20 PM)29.47 "Hg (Feb 22, 3:20 AM)
Average46 °F76%29.96 "Hg
* Reported Feb 19 8:20 AM — Mar 6 8:20 AM, Modena, Weather by CustomWeather, © 2015

Note: Actual official high and low records may vary slightly from our data, if they occured in-between our weather recording intervals... More about our weather records

Advertising

Modena weather history for previous 24 hours

 ConditionsComfort  
Time TempWeatherWind HumidityBarometerVisibility
8:20 AM
Fri, Mar 6
41 °FPassing clouds.3 mph66%30.45 "HgN/A
7:50 AM39 °FSunny.5 mph65%30.42 "Hg10 mi
7:20 AM36 °FSunny.7 mph75%30.42 "Hg10 mi
6:50 AM34 °FSunny.7 mph75%30.39 "Hg10 mi
6:20 AM34 °FClear.6 mph75%30.39 "Hg10 mi
5:50 AM34 °FPassing clouds.7 mph75%30.39 "HgN/A
5:20 AM32 °FClear.6 mph80%30.39 "Hg10 mi
4:50 AM32 °FClear.5 mph80%30.36 "Hg10 mi
4:20 AM36 °FClear.3 mph70%30.36 "Hg10 mi
3:50 AM36 °FPassing clouds.5 mph70%30.36 "HgN/A
3:20 AM37 °FClear.5 mph65%30.36 "Hg10 mi
2:50 AM36 °FClear.7 mph75%30.33 "Hg10 mi
2:20 AM34 °FClear.6 mph75%30.33 "Hg10 mi
1:50 AM37 °FClear.2 mph65%30.33 "Hg10 mi
1:20 AM37 °FClear.2 mph65%30.33 "Hg10 mi
12:50 AM39 °FClear.5 mph61%30.30 "Hg10 mi
12:20 AM39 °FClear.5 mph65%30.27 "Hg10 mi
11:50 PM
Thu, Mar 5
41 °FClear.6 mph61%30.27 "Hg10 mi
11:20 PM43 °FClear.6 mph57%30.27 "Hg10 mi
10:50 PM43 °FClear.6 mph53%30.24 "Hg10 mi
10:20 PM45 °FClear.7 mph49%30.24 "Hg10 mi
9:50 PM45 °FClear.9 mph49%30.21 "Hg10 mi
9:20 PM45 °FClear.8 mph53%30.21 "Hg10 mi
8:50 PM45 °FClear.9 mph57%30.18 "Hg10 mi
8:20 PM45 °FClear.6 mph57%30.18 "Hg10 mi
7:50 PM45 °FClear.6 mph57%30.15 "Hg10 mi
7:20 PM46 °FClear.7 mph53%30.15 "Hg10 mi
6:50 PM46 °FClear.7 mph53%30.15 "Hg10 mi
6:20 PM48 °FClear.6 mph50%30.12 "Hg10 mi
5:50 PM50 °FSunny.9 mph43%30.12 "Hg10 mi
5:20 PM52 °FPassing clouds.12 mph41%30.09 "HgN/A
4:50 PM52 °FSunny.13 mph38%30.09 "Hg10 mi
4:20 PM52 °FPassing clouds.14 mph41%30.09 "HgN/A
3:50 PM52 °FPassing clouds.13 mph38%30.09 "HgN/A
3:20 PM52 °FSunny.15 mph38%30.09 "Hg10 mi
2:50 PM52 °FPassing clouds.15 mph38%30.09 "HgN/A
2:20 PM52 °FPassing clouds.16 mph44%30.09 "HgN/A
1:50 PM52 °FPassing clouds.16 mph41%30.09 "HgN/A
1:20 PM52 °FPassing clouds.17 mph44%30.12 "HgN/A
12:50 PM52 °FPassing clouds.15 mph50%30.12 "HgN/A
12:20 PM50 °FPassing clouds.15 mph47%30.12 "HgN/A
11:50 AM50 °FPassing clouds.16 mph54%30.15 "HgN/A
11:20 AM50 °FPassing clouds.16 mph50%30.15 "HgN/A
10:50 AM50 °FPassing clouds.16 mph50%30.15 "HgN/A
10:20 AM50 °FPassing clouds.14 mph50%30.15 "HgN/A
9:50 AM46 °FPassing clouds.8 mph66%30.15 "HgN/A
9:20 AM46 °FPassing clouds.8 mph62%30.15 "HgN/A
Weather by CustomWeather, © 2015

See weather overviewHow to use our weather pages